User: anonymous   Login
Location: ????
(33.1659°N, 35.6604°E)
Time: 07:28:27
(UTC+00:00)
Language:

YAOGAN 1 - Orbit

View from above orbital plane
View from above orbital plane
View from above satellite
View from above satellite

Ground track
Ground track

The orbit data is extracted from the following two-line orbital elements,

1 29092U 06015A   19318.14324793  .00000038  00000-0  11244-4 0  9996
2 29092  97.9598 338.6130 0001435  93.3826 266.7552 14.83024453732772
Epoch (UTC): 14 November 2019 03:26:16
Eccentricity: 0.0001435
inclination: 97.9598°
perigee height: 619 km
apogee height: 621 km
right ascension of ascending node: 338.6130°
argument of perigee: 93.3826°
revolutions per day: 14.83024453
mean anomaly at epoch: 266.7552°
orbit number at epoch: 73277

The dashed part of the orbit path shows where the satellite is in the earth's shadow,  

DLR